VKG481 LGRP-ESSV

Flight info

Callsign VKG481
Flight time N/A
Altitude 34000
Route VANES B34 ADESO UN133 ATFIR DCT SODGO DCT DEGET DCT KEKED/N0448F360 DCT LENOV DCT LOGDA DCT PENOR/N0442F350 DCT KINTI
Aircraft A321/M-SDE2E3FGHIJ1RWXYZ/LB2

Departure

Time 2026-05-06 15:47
Airport Rhodes International Airport "Diagoras" (LGRP)

Arrival

Time N/A
Airport Visby Airport (ESSV)
Time Latitude Longitude Altitude Speed Heading
2026-05-06 15:15 36.40411 28.09290 28 ft 0 kts 160°
2026-05-06 15:38 36.40432 28.09281 28 ft 4 kts 159°
2026-05-06 15:38 36.40452 28.09272 28 ft 4 kts 149°
2026-05-06 15:39 36.40468 28.09250 28 ft 4 kts 92°
2026-05-06 15:39 36.40465 28.09228 28 ft 1 kts 70°
2026-05-06 15:39 36.40471 28.09248 28 ft 0 kts 70°
2026-05-06 15:41 36.40472 28.09249 28 ft 1 kts 70°
2026-05-06 15:42 36.40483 28.09287 28 ft 8 kts 70°
2026-05-06 15:42 36.40521 28.09359 28 ft 11 kts 40°
2026-05-06 15:42 36.40575 28.09407 28 ft 10 kts 43°
2026-05-06 15:42 36.40616 28.09508 28 ft 15 kts 69°
2026-05-06 15:43 36.40650 28.09625 28 ft 14 kts 70°
2026-05-06 15:43 36.40681 28.09728 28 ft 12 kts 70°
2026-05-06 15:43 36.40711 28.09834 28 ft 17 kts 70°
2026-05-06 15:43 36.40763 28.10013 28 ft 25 kts 70°
2026-05-06 15:44 36.40821 28.10207 28 ft 23 kts 70°
2026-05-06 15:44 36.40873 28.10383 28 ft 18 kts 69°
2026-05-06 15:44 36.40921 28.10439 28 ft 9 kts 360°
2026-05-06 15:44 36.40951 28.10427 28 ft 0 kts 335°
2026-05-06 15:45 36.40953 28.10426 28 ft 2 kts 335°
2026-05-06 15:45 36.40980 28.10398 27 ft 9 kts 311°
2026-05-06 15:46 36.41027 28.10318 27 ft 9 kts 303°
2026-05-06 15:46 36.41019 28.10246 27 ft 13 kts 250°
2026-05-06 15:46 36.40922 28.09929 26 ft 71 kts 250°
2026-05-06 15:46 36.40687 28.09130 31 ft 123 kts 250°
2026-05-06 15:47 36.40343 28.07962 58 ft 160 kts 250°
2026-05-06 15:47 36.39999 28.06694 703 ft 153 kts 256°
2026-05-06 15:47 36.39850 28.05379 1273 ft 154 kts 267°
2026-05-06 15:47 36.39787 28.04498 1647 ft 155 kts 268°
2026-05-06 15:48 36.39694 28.03108 1956 ft 171 kts 269°
2026-05-06 15:48 36.39588 28.01534 2114 ft 194 kts 269°
2026-05-06 15:48 36.39466 27.99782 2266 ft 214 kts 268°
2026-05-06 15:48 36.39324 27.97837 2393 ft 239 kts 269°
2026-05-06 15:49 36.39163 27.95695 2774 ft 256 kts 267°
2026-05-06 15:49 36.38986 27.93472 3444 ft 262 kts 267°
2026-05-06 15:49 36.38800 27.91199 4123 ft 267 kts 267°
2026-05-06 15:49 36.38609 27.88884 4812 ft 272 kts 267°
2026-05-06 15:50 36.38417 27.86533 5505 ft 275 kts 267°
2026-05-06 15:50 36.38383 27.84156 6181 ft 277 kts 274°
2026-05-06 15:50 36.38411 27.81760 6885 ft 279 kts 274°
2026-05-06 15:50 36.38437 27.79349 7586 ft 280 kts 274°
2026-05-06 15:51 36.38462 27.76924 8274 ft 282 kts 274°
2026-05-06 15:51 36.38486 27.74485 8977 ft 284 kts 274°
2026-05-06 15:51 36.38631 27.72044 9648 ft 284 kts 282°
2026-05-06 15:51 36.38942 27.69620 10273 ft 287 kts 282°
2026-05-06 15:52 36.39268 27.67087 10428 ft 308 kts 282°
2026-05-06 15:52 36.39618 27.64374 10556 ft 328 kts 282°
2026-05-06 15:52 36.39982 27.61509 10827 ft 341 kts 282°
2026-05-06 15:52 36.40350 27.58579 11373 ft 345 kts 281°
2026-05-06 15:53 36.40717 27.55625 11974 ft 348 kts 282°
2026-05-06 15:53 36.41086 27.52652 12589 ft 350 kts 282°
2026-05-06 15:53 36.41457 27.49656 13219 ft 352 kts 282°
2026-05-06 15:53 36.41830 27.46647 13830 ft 354 kts 282°
2026-05-06 15:54 36.42207 27.43608 14329 ft 358 kts 281°
2026-05-06 15:54 36.42582 27.40587 14847 ft 360 kts 281°
2026-05-06 15:54 36.42964 27.37506 15380 ft 362 kts 281°
2026-05-06 15:54 36.43347 27.34404 15918 ft 364 kts 281°
2026-05-06 15:55 36.43729 27.31289 16442 ft 366 kts 281°
2026-05-06 15:55 36.44114 27.28154 16948 ft 368 kts 281°
2026-05-06 15:55 36.44499 27.25007 17470 ft 370 kts 281°
2026-05-06 15:55 36.44886 27.21842 17983 ft 372 kts 281°
2026-05-06 15:56 36.45274 27.18657 18474 ft 374 kts 281°
2026-05-06 15:56 36.45660 27.15459 18880 ft 376 kts 281°
2026-05-06 15:56 36.46049 27.12234 19277 ft 378 kts 281°
2026-05-06 15:56 36.46441 27.08996 19692 ft 380 kts 281°
2026-05-06 15:57 36.46839 27.05739 20112 ft 382 kts 282°
2026-05-06 15:57 36.47239 27.02474 20532 ft 383 kts 282°
2026-05-06 15:57 36.47640 26.99195 20953 ft 385 kts 282°
2026-05-06 15:57 36.48042 26.95896 21372 ft 387 kts 282°
2026-05-06 15:58 36.48443 26.92588 21781 ft 388 kts 282°
2026-05-06 15:58 36.48846 26.89264 22186 ft 390 kts 282°
2026-05-06 15:58 36.49249 26.85921 22589 ft 392 kts 282°
2026-05-06 15:58 36.49651 26.82563 22957 ft 394 kts 282°
2026-05-06 15:59 36.50051 26.79180 23343 ft 396 kts 282°
2026-05-06 15:59 36.50452 26.75786 23712 ft 398 kts 282°
2026-05-06 15:59 36.50855 26.72371 24036 ft 400 kts 282°
2026-05-06 15:59 36.51258 26.68948 24357 ft 401 kts 282°
2026-05-06 16:00 36.51659 26.65511 24676 ft 403 kts 282°
2026-05-06 16:00 36.52060 26.62060 24994 ft 404 kts 282°
2026-05-06 16:00 36.52495 26.58603 25295 ft 404 kts 286°
2026-05-06 16:00 36.53370 26.55308 25574 ft 401 kts 297°
2026-05-06 16:01 36.54789 26.52333 25828 ft 401 kts 309°
2026-05-06 16:01 36.56689 26.49801 26099 ft 402 kts 320°
2026-05-06 16:01 36.58992 26.47820 26376 ft 404 kts 331°
2026-05-06 16:01 36.61537 26.46315 26666 ft 406 kts 334°
2026-05-06 16:02 36.64106 26.44826 26946 ft 408 kts 334°
2026-05-06 16:02 36.66678 26.43327 27226 ft 409 kts 333°
2026-05-06 16:02 36.69262 26.41814 27510 ft 411 kts 333°
2026-05-06 16:02 36.71853 26.40292 27782 ft 412 kts 333°
2026-05-06 16:03 36.74414 26.38781 28057 ft 414 kts 333°
2026-05-06 16:03 36.77019 26.37243 28347 ft 414 kts 333°
2026-05-06 16:03 36.79625 26.35710 28635 ft 415 kts 333°
2026-05-06 16:03 36.82243 26.34170 28902 ft 416 kts 333°
2026-05-06 16:04 36.84866 26.32630 29159 ft 418 kts 333°
2026-05-06 16:04 36.87499 26.31083 29421 ft 419 kts 333°
2026-05-06 16:04 36.90143 26.29526 29659 ft 420 kts 333°
2026-05-06 16:04 36.92785 26.27966 29985 ft 420 kts 333°
2026-05-06 16:05 36.95421 26.26407 30315 ft 419 kts 333°
2026-05-06 16:05 36.98049 26.24851 30576 ft 418 kts 333°
2026-05-06 16:05 37.00676 26.23282 30847 ft 418 kts 332°
2026-05-06 16:05 37.03288 26.21696 31147 ft 417 kts 332°
2026-05-06 16:06 37.05892 26.20098 31440 ft 416 kts 332°
2026-05-06 16:06 37.08486 26.18504 31734 ft 415 kts 332°
2026-05-06 16:06 37.11076 26.16911 32027 ft 415 kts 332°
2026-05-06 16:06 37.13665 26.15321 32311 ft 414 kts 332°
2026-05-06 16:07 37.16252 26.13735 32603 ft 413 kts 332°
2026-05-06 16:07 37.18832 26.12158 32899 ft 413 kts 332°
2026-05-06 16:07 37.21414 26.10582 33185 ft 412 kts 332°
2026-05-06 16:07 37.23987 26.09009 33458 ft 411 kts 332°
2026-05-06 16:08 37.26558 26.07430 33759 ft 411 kts 332°
2026-05-06 16:08 37.29119 26.05856 34025 ft 410 kts 332°
2026-05-06 16:08 37.34202 26.02730 34092 ft 404 kts 332°
2026-05-06 16:09 37.39244 25.99626 34089 ft 403 kts 332°
2026-05-06 16:09 37.44279 25.96524 34089 ft 403 kts 332°
2026-05-06 16:10 37.49312 25.93411 34089 ft 403 kts 331°
2026-05-06 16:10 37.54349 25.90295 34096 ft 403 kts 332°
2026-05-06 16:11 37.59387 25.87180 34086 ft 403 kts 332°
2026-05-06 16:11 37.64391 25.84079 34082 ft 403 kts 331°
2026-05-06 16:12 37.69450 25.80933 34079 ft 403 kts 331°
2026-05-06 16:12 37.74443 25.77821 34077 ft 403 kts 331°
2026-05-06 16:13 37.79500 25.74672 34078 ft 403 kts 331°
2026-05-06 16:13 37.84528 25.71537 34074 ft 403 kts 331°
2026-05-06 16:14 37.89514 25.68414 34074 ft 403 kts 331°
2026-05-06 16:14 37.94535 25.65265 34074 ft 403 kts 331°
2026-05-06 16:15 37.99559 25.62109 34062 ft 403 kts 331°
2026-05-06 16:15 38.04585 25.58955 34071 ft 403 kts 331°
2026-05-06 16:16 38.09612 25.55797 34068 ft 403 kts 331°
2026-05-06 16:16 38.14642 25.52622 34068 ft 403 kts 331°
2026-05-06 16:17 38.19669 25.49450 34066 ft 403 kts 331°
2026-05-06 16:17 38.24696 25.46270 34067 ft 404 kts 331°
2026-05-06 16:18 38.29730 25.43085 34074 ft 404 kts 331°
2026-05-06 16:18 38.34750 25.39896 34071 ft 403 kts 331°
2026-05-06 16:19 38.39775 25.36703 34067 ft 403 kts 331°
2026-05-06 16:19 38.44804 25.33511 34066 ft 403 kts 331°
2026-05-06 16:20 38.49827 25.30305 34060 ft 404 kts 331°
2026-05-06 16:20 38.54857 25.27091 34064 ft 404 kts 331°
2026-05-06 16:21 38.59887 25.23880 34061 ft 405 kts 331°
2026-05-06 16:21 38.64921 25.20655 34058 ft 405 kts 331°
2026-05-06 16:22 38.69930 25.17448 34059 ft 405 kts 331°
2026-05-06 16:22 38.74963 25.14217 34057 ft 405 kts 331°
2026-05-06 16:23 38.79996 25.10974 34067 ft 405 kts 331°
2026-05-06 16:23 38.85034 25.07733 34063 ft 405 kts 331°
2026-05-06 16:24 38.90070 25.04487 34066 ft 405 kts 331°
2026-05-06 16:24 38.95099 25.01233 34056 ft 405 kts 331°
2026-05-06 16:25 39.00136 24.97965 34069 ft 405 kts 331°
2026-05-06 16:25 39.05174 24.94696 34059 ft 406 kts 331°
2026-05-06 16:26 39.10227 24.91419 34059 ft 406 kts 331°
2026-05-06 16:26 39.15317 24.88227 34059 ft 407 kts 332°
2026-05-06 16:27 39.20435 24.85089 34056 ft 407 kts 332°
2026-05-06 16:27 39.25544 24.81937 34057 ft 407 kts 332°
2026-05-06 16:28 39.30646 24.78769 34051 ft 407 kts 332°
2026-05-06 16:28 39.35754 24.75581 34047 ft 407 kts 332°
2026-05-06 16:29 39.40860 24.72394 34051 ft 407 kts 332°
2026-05-06 16:29 39.45973 24.69205 34055 ft 408 kts 332°
2026-05-06 16:30 39.49349 24.67092 34064 ft 408 kts 332°
2026-05-06 16:30 39.56146 24.62835 34056 ft 408 kts 332°
2026-05-06 16:31 39.61252 24.59634 34060 ft 408 kts 332°
2026-05-06 16:31 39.66352 24.56427 34054 ft 408 kts 332°
2026-05-06 16:32 39.71452 24.53208 34062 ft 407 kts 332°
2026-05-06 16:32 39.76550 24.49981 34073 ft 407 kts 332°
2026-05-06 16:33 39.81653 24.46760 34055 ft 407 kts 332°
2026-05-06 16:34 39.89292 24.41924 34053 ft 407 kts 332°
2026-05-06 16:34 39.93529 24.39233 34053 ft 407 kts 332°
2026-05-06 16:35 39.98621 24.35996 34045 ft 407 kts 332°
2026-05-06 16:35 40.04581 24.32206 34041 ft 408 kts 332°
2026-05-06 16:36 40.08822 24.29507 34044 ft 408 kts 332°
2026-05-06 16:36 40.13927 24.26249 34045 ft 408 kts 332°
2026-05-06 16:37 40.19035 24.22981 34038 ft 408 kts 332°
2026-05-06 16:37 40.24139 24.19714 34038 ft 409 kts 332°
2026-05-06 16:38 40.29243 24.16432 34036 ft 409 kts 332°
2026-05-06 16:38 40.34345 24.13147 34039 ft 409 kts 332°
2026-05-06 16:39 40.39450 24.09864 34038 ft 408 kts 332°
2026-05-06 16:39 40.44551 24.06570 34025 ft 408 kts 332°
2026-05-06 16:40 40.49651 24.03276 34038 ft 408 kts 332°
2026-05-06 16:40 40.54748 23.99971 34037 ft 408 kts 332°
2026-05-06 16:41 40.59886 23.96909 34026 ft 410 kts 340°
2026-05-06 16:41 40.65497 23.95402 34021 ft 412 kts 347°
2026-05-06 16:42 40.71150 23.94066 34027 ft 413 kts 347°
2026-05-06 16:42 40.76799 23.92706 34040 ft 412 kts 347°
2026-05-06 16:43 40.82449 23.91359 34037 ft 412 kts 347°
2026-05-06 16:43 40.88095 23.90019 34028 ft 412 kts 347°
2026-05-06 16:44 40.93743 23.88666 34030 ft 412 kts 347°
2026-05-06 16:44 40.99392 23.87309 34024 ft 412 kts 347°
2026-05-06 16:45 41.05035 23.85951 34020 ft 412 kts 347°
2026-05-06 16:45 41.10685 23.84590 34023 ft 412 kts 347°
2026-05-06 16:46 41.16330 23.83232 34021 ft 412 kts 347°
2026-05-06 16:46 41.21972 23.81874 34017 ft 412 kts 347°
2026-05-06 16:47 41.27626 23.80506 34017 ft 413 kts 347°
2026-05-06 16:47 41.33243 23.79149 34030 ft 413 kts 347°
2026-05-06 16:48 41.38927 23.77779 34032 ft 412 kts 347°
2026-05-06 16:48 41.44538 23.76392 34033 ft 413 kts 346°
2026-05-06 16:49 41.50180 23.74952 34035 ft 413 kts 346°
2026-05-06 16:49 41.55818 23.73501 34036 ft 413 kts 346°
2026-05-06 16:50 41.61464 23.72061 34038 ft 413 kts 346°
2026-05-06 16:50 41.67114 23.70634 34043 ft 413 kts 346°
2026-05-06 16:51 41.72762 23.69196 34042 ft 413 kts 346°
2026-05-06 16:51 41.78414 23.67752 34041 ft 414 kts 346°
2026-05-06 16:52 41.84068 23.66303 34044 ft 414 kts 346°
2026-05-06 16:52 41.89721 23.64841 34044 ft 414 kts 346°
2026-05-06 16:53 41.95379 23.63394 34049 ft 414 kts 346°
2026-05-06 16:53 42.01039 23.61947 34043 ft 414 kts 346°
2026-05-06 16:54 42.06690 23.60483 34034 ft 414 kts 346°
2026-05-06 16:54 42.12352 23.59015 34034 ft 415 kts 346°
2026-05-06 16:55 42.18023 23.57554 34034 ft 416 kts 346°
2026-05-06 16:55 42.23720 23.56084 34014 ft 418 kts 346°
2026-05-06 16:56 42.29441 23.54598 34001 ft 420 kts 346°
2026-05-06 16:56 42.35184 23.53103 34003 ft 421 kts 346°
2026-05-06 16:57 42.40942 23.51599 34002 ft 422 kts 346°
2026-05-06 16:57 42.46701 23.50078 34009 ft 422 kts 346°
2026-05-06 16:58 42.52434 23.48579 34016 ft 423 kts 346°
2026-05-06 16:58 42.58215 23.47071 34007 ft 423 kts 346°
2026-05-06 16:59 42.64003 23.45559 33995 ft 424 kts 346°
2026-05-06 16:59 42.69801 23.44033 33991 ft 424 kts 345°
2026-05-06 17:00 42.75603 23.42495 33995 ft 425 kts 346°
2026-05-06 17:00 42.81404 23.40959 33996 ft 425 kts 346°
2026-05-06 17:01 42.87214 23.39431 33999 ft 425 kts 346°
2026-05-06 17:01 42.93025 23.37896 33981 ft 425 kts 345°
2026-05-06 17:02 42.98834 23.36346 33980 ft 426 kts 345°
2026-05-06 17:02 43.04657 23.34784 33975 ft 426 kts 346°
2026-05-06 17:03 43.10492 23.33234 33968 ft 427 kts 346°
2026-05-06 17:03 43.16280 23.31697 33977 ft 427 kts 346°
2026-05-06 17:04 43.22117 23.30138 33976 ft 427 kts 346°
2026-05-06 17:04 43.27955 23.28569 33967 ft 427 kts 345°